Powrót do katalogu

COSMOS 2251 DEB

AktywnyLEO
NORAD 33995·DEBRIS·🇷🇺 Russia

Wystrzelony Jun 16, 1993 z Plesetsk Cosmodrome

Loading…

Następne Przeloty (najbliższe 24 godziny)

TLE

ŚwieżeSource: Space-Track

Epoka: Sep 13, 2026, 14:43 UTC

1 33995U 93036GE  26256.61365386  .00001296  00000-0  44664-3 0  9994
2 33995  74.0620 335.9415 0061688 282.3799  77.0454 14.35874807914636

Śledź COSMOS 2251 DEB w czasie rzeczywistym z AllMySat

Download on the App Store